Location: ?????????
(44.2517°N, 135.2292°E)
Time: 02:13:34
(UTC+00:00)

Cosmos 1733 Rocket - Pass Details

Date: 19 May 2025
Orbit: 598 x 620 km, 82.5° (Epoch: 14 June)

Event Time Altitude Azimuth Distance (km) Brightness Sun altitude
Rises 17:06:33 0° 352° (N) 2,907 7.3 -19.2°
Reaches altitude 10° 17:08:47 10° 354° (N) 1,997 6.4 -19.0°
Maximum altitude 17:13:13 80° 82° (E) 636 3.1 -18.5°
Enters shadow 17:15:41 26° 166° (SSE) 1,226 4.2 -18.3°
